owner,sensor,date,latitude,longitude,vertical_datum,sea_water_practical_salinity,qcFlag 
DISL,ioos:station:DISL:MHPA:1,2019-04-01T00:00:00Z,30.6671,-87.9365,1.066,0.07,1111122 
DISL,ioos:station:DISL:MHPA:1,2019-04-01T00:30:00Z,30.6671,-87.9365,1.1,0.1,11111222 
DISL,ioos:station:DISL:MHPA:1,2019-04-01T01:00:00Z,30.6671,-87.9365,1.147,0.07,1111122 
DISL,ioos:station:DISL:MHPA:1,2019-04-01T01:30:00Z,30.6671,-87.9365,1.1,0.1,11111222 
DISL,ioos:station:DISL:MHPA:1,2019-04-01T02:00:00Z,30.6671,-87.9365,1.178,0.07,1111122 
DISL,ioos:station:DISL:MHPA:1,2019-04-01T02:30:00Z,30.6671,-87.9365,1.2,0.1,11111222 
DISL,ioos:station:DISL:MHPA:1,2019-04-01T03:00:00Z,30.6671,-87.9365,1.216,0.07,1111122 
DISL,ioos:station:DISL:MHPA:1,2019-04-01T03:30:00Z,30.6671,-87.9365,1.2,0.1,11111222 
DISL,ioos:station:DISL:MHPA:1,2019-04-01T04:00:00Z,30.6671,-87.9365,1.242,0.07,1111122 
DISL,ioos:station:DISL:MHPA:1,2019-04-01T04:30:00Z,30.6671,-87.9365,1.3,0.1,11111222 
DISL,ioos:station:DISL:MHPA:1,2019-04-01T05:00:00Z,30.6671,-87.9365,1.253,0.07,1111122 
DISL,ioos:station:DISL:MHPA:1,2019-04-01T05:30:00Z,30.6671,-87.9365,1.2,0.1,11111222 
DISL,ioos:station:DISL:MHPA:1,2019-04-01T06:00:00Z,30.6671,-87.9365,1.197,0.07,1111122 
DISL,ioos:station:DISL:MHPA:1,2019-04-01T06:30:00Z,30.6671,-87.9365,1.2,0.1,11111222 
DISL,ioos:station:DISL:MHPA:1,2019-04-01T07:00:00Z,30.6671,-87.9365,1.164,0.07,1111122 
DISL,ioos:station:DISL:MHPA:1,2019-04-01T07:30:00Z,30.6671,-87.9365,1.1,0.1,11111222 
DISL,ioos:station:DISL:MHPA:1,2019-04-01T08:00:00Z,30.6671,-87.9365,1.094,0.07,1111122 
DISL,ioos:station:DISL:MHPA:1,2019-04-01T08:30:00Z,30.6671,-87.9365,1.1,0.1,11111222 
DISL,ioos:station:DISL:MHPA:1,2019-04-01T09:00:00Z,30.6671,-87.9365,1.066,0.07,1111122 
DISL,ioos:station:DISL:MHPA:1,2019-04-01T09:30:00Z,30.6671,-87.9365,1.1,0.1,11111222 
DISL,ioos:station:DISL:MHPA:1,2019-04-01T10:00:00Z,30.6671,-87.9365,1.026,0.07,1111122 
DISL,ioos:station:DISL:MHPA:1,2019-04-01T10:30:00Z,30.6671,-87.9365,1.0,0.1,11111222 
DISL,ioos:station:DISL:MHPA:1,2019-04-01T11:00:00Z,30.6671,-87.9365,1.006,0.07,1111122 
DISL,ioos:station:DISL:MHPA:1,2019-04-01T11:30:00Z,30.6671,-87.9365,1.0,0.1,11111222 
DISL,ioos:station:DISL:MHPA:1,2019-04-01T12:00:00Z,30.6671,-87.9365,0.97,0.07,1111122 
DISL,ioos:station:DISL:MHPA:1,2019-04-01T12:30:00Z,30.6671,-87.9365,1.0,0.1,11111222 
DISL,ioos:station:DISL:MHPA:1,2019-04-01T13:00:00Z,30.6671,-87.9365,0.953,0.07,1111122 
DISL,ioos:station:DISL:MHPA:1,2019-04-01T13:30:00Z,30.6671,-87.9365,1.0,0.1,11111222 
DISL,ioos:station:DISL:MHPA:1,2019-04-01T14:00:00Z,30.6671,-87.9365,0.979,0.07,1111122 
DISL,ioos:station:DISL:MHPA:1,2019-04-01T14:30:00Z,30.6671,-87.9365,1.0,0.1,11111222 
DISL,ioos:station:DISL:MHPA:1,2019-04-01T15:00:00Z,30.6671,-87.9365,0.99,0.07,1111122 
DISL,ioos:station:DISL:MHPA:1,2019-04-01T15:30:00Z,30.6671,-87.9365,1.0,0.1,11111222 
DISL,ioos:station:DISL:MHPA:1,2019-04-01T16:00:00Z,30.6671,-87.9365,1.083,0.07,1111122 
DISL,ioos:station:DISL:MHPA:1,2019-04-01T16:30:00Z,30.6671,-87.9365,1.1,0.1,11111222 
DISL,ioos:station:DISL:MHPA:1,2019-04-01T17:00:00Z,30.6671,-87.9365,1.157,0.07,1111122 
DISL,ioos:station:DISL:MHPA:1,2019-04-01T17:30:00Z,30.6671,-87.9365,1.2,0.1,11111222 
DISL,ioos:station:DISL:MHPA:1,2019-04-01T18:00:00Z,30.6671,-87.9365,1.219,0.07,1111122 
DISL,ioos:station:DISL:MHPA:1,2019-04-01T18:30:00Z,30.6671,-87.9365,1.3,0.1,11111222 
DISL,ioos:station:DISL:MHPA:1,2019-04-01T19:00:00Z,30.6671,-87.9365,1.283,0.07,1111122 
DISL,ioos:station:DISL:MHPA:1,2019-04-01T19:30:00Z,30.6671,-87.9365,1.3,0.1,11111222 
DISL,ioos:station:DISL:MHPA:1,2019-04-01T20:00:00Z,30.6671,-87.9365,1.315,0.07,1111122 
DISL,ioos:station:DISL:MHPA:1,2019-04-01T20:30:00Z,30.6671,-87.9365,1.3,0.1,11111222 
DISL,ioos:station:DISL:MHPA:1,2019-04-01T21:00:00Z,30.6671,-87.9365,1.33,0.07,1111122 
DISL,ioos:station:DISL:MHPA:1,2019-04-01T21:30:00Z,30.6671,-87.9365,1.4,0.1,11111222 
DISL,ioos:station:DISL:MHPA:1,2019-04-01T22:00:00Z,30.6671,-87.9365,1.341,0.07,1111122 
DISL,ioos:station:DISL:MHPA:1,2019-04-01T22:30:00Z,30.6671,-87.9365,1.4,0.1,11111222 
DISL,ioos:station:DISL:MHPA:1,2019-04-01T23:00:00Z,30.6671,-87.9365,1.417,0.07,1111122 
DISL,ioos:station:DISL:MHPA:1,2019-04-01T23:30:00Z,30.6671,-87.9365,1.4,0.1,11111222 
DISL,ioos:station:DISL:MHPA:1,2019-04-02T00:00:00Z,30.6671,-87.9365,1.454,0.07,1111122 
DISL,ioos:station:DISL:MHPA:1,2019-04-02T00:30:00Z,30.6671,-87.9365,1.4,0.1,11111222 
DISL,ioos:station:DISL:MHPA:1,2019-04-02T01:00:00Z,30.6671,-87.9365,1.457,0.07,1111122 
DISL,ioos:station:DISL:MHPA:1,2019-04-02T01:30:00Z,30.6671,-87.9365,1.4,0.1,11111222 
DISL,ioos:station:DISL:MHPA:1,2019-04-02T02:00:00Z,30.6671,-87.9365,1.448,0.07,1111122 
DISL,ioos:station:DISL:MHPA:1,2019-04-02T02:30:00Z,30.6671,-87.9365,1.5,0.1,11111222 
DISL,ioos:station:DISL:MHPA:1,2019-04-02T03:00:00Z,30.6671,-87.9365,1.481,0.07,1111122 
DISL,ioos:station:DISL:MHPA:1,2019-04-02T03:30:00Z,30.6671,-87.9365,1.5,0.1,11111222 
DISL,ioos:station:DISL:MHPA:1,2019-04-02T04:00:00Z,30.6671,-87.9365,1.435,0.07,1111122 
DISL,ioos:station:DISL:MHPA:1,2019-04-02T04:30:00Z,30.6671,-87.9365,1.4,0.1,11111222 
DISL,ioos:station:DISL:MHPA:1,2019-04-02T05:00:00Z,30.6671,-87.9365,1.403,0.07,1111122 
DISL,ioos:station:DISL:MHPA:1,2019-04-02T05:30:00Z,30.6671,-87.9365,1.4,0.1,11111222 
DISL,ioos:station:DISL:MHPA:1,2019-04-02T06:00:00Z,30.6671,-87.9365,1.4,0.1,11111222 
DISL,ioos:station:DISL:MHPA:1,2019-04-02T06:30:00Z,30.6671,-87.9365,1.358,0.07,1111122 
DISL,ioos:station:DISL:MHPA:1,2019-04-02T07:00:00Z,30.6671,-87.9365,1.358,0.07,1111122 
DISL,ioos:station:DISL:MHPA:1,2019-04-02T07:30:00Z,30.6671,-87.9365,1.3,0.1,11111222 
DISL,ioos:station:DISL:MHPA:1,2019-04-02T08:00:00Z,30.6671,-87.9365,1.282,0.07,1111122 
DISL,ioos:station:DISL:MHPA:1,2019-04-02T08:30:00Z,30.6671,-87.9365,1.2,0.1,11111222 
DISL,ioos:station:DISL:MHPA:1,2019-04-02T09:00:00Z,30.6671,-87.9365,1.162,0.07,1111122 
DISL,ioos:station:DISL:MHPA:1,2019-04-02T09:30:00Z,30.6671,-87.9365,1.1,0.1,11111222 
DISL,ioos:station:DISL:MHPA:1,2019-04-02T10:00:00Z,30.6671,-87.9365,1.09,0.07,1111122 
DISL,ioos:station:DISL:MHPA:1,2019-04-02T10:30:00Z,30.6671,-87.9365,1.1,0.1,11111222 
DISL,ioos:station:DISL:MHPA:1,2019-04-02T11:00:00Z,30.6671,-87.9365,1.052,0.07,1111122 
DISL,ioos:station:DISL:MHPA:1,2019-04-02T11:30:00Z,30.6671,-87.9365,1.1,0.1,11111222 
DISL,ioos:station:DISL:MHPA:1,2019-04-02T12:00:00Z,30.6671,-87.9365,1.046,0.07,1111122 
DISL,ioos:station:DISL:MHPA:1,2019-04-02T12:30:00Z,30.6671,-87.9365,1.0,0.1,11111222 
DISL,ioos:station:DISL:MHPA:1,2019-04-02T13:00:00Z,30.6671,-87.9365,1.033,0.07,1111122 
DISL,ioos:station:DISL:MHPA:1,2019-04-02T13:30:00Z,30.6671,-87.9365,1.0,0.1,11111222 
DISL,ioos:station:DISL:MHPA:1,2019-04-02T14:00:00Z,30.6671,-87.9365,1.02,0.07,1111122 
DISL,ioos:station:DISL:MHPA:1,2019-04-02T14:30:00Z,30.6671,-87.9365,1.0,0.1,11111222 
DISL,ioos:station:DISL:MHPA:1,2019-04-02T15:00:00Z,30.6671,-87.9365,1.053,0.07,1111122 
DISL,ioos:station:DISL:MHPA:1,2019-04-02T15:30:00Z,30.6671,-87.9365,1.0,0.1,11111222 
DISL,ioos:station:DISL:MHPA:1,2019-04-02T16:00:00Z,30.6671,-87.9365,1.057,0.07,1111122 
DISL,ioos:station:DISL:MHPA:1,2019-04-02T16:30:00Z,30.6671,-87.9365,1.1,0.1,11111222 
DISL,ioos:station:DISL:MHPA:1,2019-04-02T17:00:00Z,30.6671,-87.9365,1.163,0.07,1111122 
DISL,ioos:station:DISL:MHPA:1,2019-04-02T17:30:00Z,30.6671,-87.9365,1.2,0.1,11111222 
DISL,ioos:station:DISL:MHPA:1,2019-04-02T18:00:00Z,30.6671,-87.9365,1.215,0.07,1111122 
DISL,ioos:station:DISL:MHPA:1,2019-04-02T18:30:00Z,30.6671,-87.9365,1.3,0.1,11111222 
DISL,ioos:station:DISL:MHPA:1,2019-04-02T19:00:00Z,30.6671,-87.9365,1.249,0.07,1111122 
DISL,ioos:station:DISL:MHPA:1,2019-04-02T19:30:00Z,30.6671,-87.9365,1.3,0.1,11111222 
DISL,ioos:station:DISL:MHPA:1,2019-04-02T20:00:00Z,30.6671,-87.9365,1.29,0.07,1111122 
DISL,ioos:station:DISL:MHPA:1,2019-04-02T20:30:00Z,30.6671,-87.9365,1.3,0.1,11111222 
DISL,ioos:station:DISL:MHPA:1,2019-04-02T21:00:00Z,30.6671,-87.9365,1.286,0.07,1111122 
DISL,ioos:station:DISL:MHPA:1,2019-04-02T21:30:00Z,30.6671,-87.9365,1.3,0.1,11111222 
DISL,ioos:station:DISL:MHPA:1,2019-04-02T22:00:00Z,30.6671,-87.9365,1.313,0.07,1111122 
DISL,ioos:station:DISL:MHPA:1,2019-04-02T22:30:00Z,30.6671,-87.9365,1.3,0.1,11111222 
DISL,ioos:station:DISL:MHPA:1,2019-04-02T23:00:00Z,30.6671,-87.9365,1.298,0.07,1111122 
DISL,ioos:station:DISL:MHPA:1,2019-04-02T23:30:00Z,30.6671,-87.9365,1.3,0.1,11111222 
DISL,ioos:station:DISL:MHPA:1,2019-04-03T00:00:00Z,30.6671,-87.9365,1.318,0.07,1111122 
DISL,ioos:station:DISL:MHPA:1,2019-04-03T00:30:00Z,30.6671,-87.9365,1.3,0.1,11111222 
DISL,ioos:station:DISL:MHPA:1,2019-04-03T01:00:00Z,30.6671,-87.9365,1.319,0.07,1111122 
DISL,ioos:station:DISL:MHPA:1,2019-04-03T01:30:00Z,30.6671,-87.9365,1.3,0.1,11111222 
DISL,ioos:station:DISL:MHPA:1,2019-04-03T02:00:00Z,30.6671,-87.9365,1.354,0.07,1111122 
DISL,ioos:station:DISL:MHPA:1,2019-04-03T02:30:00Z,30.6671,-87.9365,1.4,0.1,11111222 
DISL,ioos:station:DISL:MHPA:1,2019-04-03T03:00:00Z,30.6671,-87.9365,1.365,0.07,1111122 
DISL,ioos:station:DISL:MHPA:1,2019-04-03T03:30:00Z,30.6671,-87.9365,1.4,0.1,11111222 
DISL,ioos:station:DISL:MHPA:1,2019-04-03T04:00:00Z,30.6671,-87.9365,1.337,0.07,1111122 
DISL,ioos:station:DISL:MHPA:1,2019-04-03T04:30:00Z,30.6671,-87.9365,1.3,0.1,11111222 
DISL,ioos:station:DISL:MHPA:1,2019-04-03T05:00:00Z,30.6671,-87.9365,1.314,0.07,1111122 
DISL,ioos:station:DISL:MHPA:1,2019-04-03T05:30:00Z,30.6671,-87.9365,1.3,0.1,11111222 
DISL,ioos:station:DISL:MHPA:1,2019-04-03T06:00:00Z,30.6671,-87.9365,1.277,0.07,1111122 
DISL,ioos:station:DISL:MHPA:1,2019-04-03T06:30:00Z,30.6671,-87.9365,1.3,0.1,11111222 
DISL,ioos:station:DISL:MHPA:1,2019-04-03T07:00:00Z,30.6671,-87.9365,1.225,0.07,1111122 
DISL,ioos:station:DISL:MHPA:1,2019-04-03T07:30:00Z,30.6671,-87.9365,1.2,0.1,11111222 
DISL,ioos:station:DISL:MHPA:1,2019-04-03T08:00:00Z,30.6671,-87.9365,1.183,0.07,1111122 
DISL,ioos:station:DISL:MHPA:1,2019-04-03T08:30:00Z,30.6671,-87.9365,1.2,0.1,11111222 
DISL,ioos:station:DISL:MHPA:1,2019-04-03T09:00:00Z,30.6671,-87.9365,1.133,0.07,1111122 
DISL,ioos:station:DISL:MHPA:1,2019-04-03T09:30:00Z,30.6671,-87.9365,1.1,0.1,11111222 
DISL,ioos:station:DISL:MHPA:1,2019-04-03T10:00:00Z,30.6671,-87.9365,1.11,0.07,1111122 
DISL,ioos:station:DISL:MHPA:1,2019-04-03T10:30:00Z,30.6671,-87.9365,1.1,0.1,11111222 
DISL,ioos:station:DISL:MHPA:1,2019-04-03T11:00:00Z,30.6671,-87.9365,1.073,0.07,1111122 
DISL,ioos:station:DISL:MHPA:1,2019-04-03T11:30:00Z,30.6671,-87.9365,1.1,0.1,11111222 
DISL,ioos:station:DISL:MHPA:1,2019-04-03T12:00:00Z,30.6671,-87.9365,1.065,0.07,1111122 
DISL,ioos:station:DISL:MHPA:1,2019-04-03T12:30:00Z,30.6671,-87.9365,1.1,0.1,11111222 
DISL,ioos:station:DISL:MHPA:1,2019-04-03T13:00:00Z,30.6671,-87.9365,1.07,0.07,1111122 
DISL,ioos:station:DISL:MHPA:1,2019-04-03T13:30:00Z,30.6671,-87.9365,1.1,0.1,11111222 
DISL,ioos:station:DISL:MHPA:1,2019-04-03T14:00:00Z,30.6671,-87.9365,1.087,0.07,1111122 
DISL,ioos:station:DISL:MHPA:1,2019-04-03T14:30:00Z,30.6671,-87.9365,1.1,0.1,11111222 
DISL,ioos:station:DISL:MHPA:1,2019-04-03T15:00:00Z,30.6671,-87.9365,1.128,0.07,1111122 
DISL,ioos:station:DISL:MHPA:1,2019-04-03T15:30:00Z,30.6671,-87.9365,1.2,0.1,11111222 
DISL,ioos:station:DISL:MHPA:1,2019-04-03T16:00:00Z,30.6671,-87.9365,1.196,0.07,1111122 
DISL,ioos:station:DISL:MHPA:1,2019-04-03T16:30:00Z,30.6671,-87.9365,1.2,0.1,11111222 
DISL,ioos:station:DISL:MHPA:1,2019-04-03T17:00:00Z,30.6671,-87.9365,1.219,0.07,1111122 
DISL,ioos:station:DISL:MHPA:1,2019-04-03T17:30:00Z,30.6671,-87.9365,1.2,0.1,11111222 
DISL,ioos:station:DISL:MHPA:1,2019-04-03T18:00:00Z,30.6671,-87.9365,1.248,0.07,1111122 
DISL,ioos:station:DISL:MHPA:1,2019-04-03T18:30:00Z,30.6671,-87.9365,1.3,0.1,11111222 
DISL,ioos:station:DISL:MHPA:1,2019-04-03T19:00:00Z,30.6671,-87.9365,1.284,0.07,1111122 
DISL,ioos:station:DISL:MHPA:1,2019-04-03T19:30:00Z,30.6671,-87.9365,1.3,0.1,11111222 
DISL,ioos:station:DISL:MHPA:1,2019-04-03T20:00:00Z,30.6671,-87.9365,1.31,0.07,1111122 
DISL,ioos:station:DISL:MHPA:1,2019-04-03T20:30:00Z,30.6671,-87.9365,1.3,0.1,11111222 
DISL,ioos:station:DISL:MHPA:1,2019-04-03T21:00:00Z,30.6671,-87.9365,1.322,0.07,1111122 
DISL,ioos:station:DISL:MHPA:1,2019-04-03T21:30:00Z,30.6671,-87.9365,1.3,0.1,11111222 
DISL,ioos:station:DISL:MHPA:1,2019-04-03T22:00:00Z,30.6671,-87.9365,1.275,0.07,1111122 
DISL,ioos:station:DISL:MHPA:1,2019-04-03T22:30:00Z,30.6671,-87.9365,1.2,0.1,11111222 
DISL,ioos:station:DISL:MHPA:1,2019-04-03T23:00:00Z,30.6671,-87.9365,1.23,0.07,1111122 
DISL,ioos:station:DISL:MHPA:1,2019-04-03T23:30:00Z,30.6671,-87.9365,1.2,0.1,11111222 
DISL,ioos:station:DISL:MHPA:1,2019-04-04T00:00:00Z,30.6671,-87.9365,1.211,0.07,1111122 
DISL,ioos:station:DISL:MHPA:1,2019-04-04T00:30:00Z,30.6671,-87.9365,1.2,0.1,11111222 
DISL,ioos:station:DISL:MHPA:1,2019-04-04T01:00:00Z,30.6671,-87.9365,1.204,0.08,1111122 
DISL,ioos:station:DISL:MHPA:1,2019-04-04T01:30:00Z,30.6671,-87.9365,1.2,0.1,11111222 
DISL,ioos:station:DISL:MHPA:1,2019-04-04T02:00:00Z,30.6671,-87.9365,1.23,0.08,1111122 
DISL,ioos:station:DISL:MHPA:1,2019-04-04T02:30:00Z,30.6671,-87.9365,1.2,0.1,11111222 
DISL,ioos:station:DISL:MHPA:1,2019-04-04T03:00:00Z,30.6671,-87.9365,1.273,0.07,1111122 
DISL,ioos:station:DISL:MHPA:1,2019-04-04T03:30:00Z,30.6671,-87.9365,1.3,0.1,11111222 
DISL,ioos:station:DISL:MHPA:1,2019-04-04T04:00:00Z,30.6671,-87.9365,1.303,0.07,1111122 
DISL,ioos:station:DISL:MHPA:1,2019-04-04T04:30:00Z,30.6671,-87.9365,1.3,0.1,11111222 
DISL,ioos:station:DISL:MHPA:1,2019-04-04T05:00:00Z,30.6671,-87.9365,1.313,0.07,1111122 
DISL,ioos:station:DISL:MHPA:1,2019-04-04T05:30:00Z,30.6671,-87.9365,1.3,0.1,11111222 
DISL,ioos:station:DISL:MHPA:1,2019-04-04T06:00:00Z,30.6671,-87.9365,1.306,0.07,1111122 
DISL,ioos:station:DISL:MHPA:1,2019-04-04T06:30:00Z,30.6671,-87.9365,1.3,0.1,11111222 
DISL,ioos:station:DISL:MHPA:1,2019-04-04T07:00:00Z,30.6671,-87.9365,1.273,0.07,1111122 
DISL,ioos:station:DISL:MHPA:1,2019-04-04T07:30:00Z,30.6671,-87.9365,1.3,0.1,11111222 
DISL,ioos:station:DISL:MHPA:1,2019-04-04T08:00:00Z,30.6671,-87.9365,1.284,0.07,1111122 
DISL,ioos:station:DISL:MHPA:1,2019-04-04T08:30:00Z,30.6671,-87.9365,1.2,0.1,11111222 
DISL,ioos:station:DISL:MHPA:1,2019-04-04T09:00:00Z,30.6671,-87.9365,1.211,0.07,1111122 
DISL,ioos:station:DISL:MHPA:1,2019-04-04T09:30:00Z,30.6671,-87.9365,1.2,0.1,11111222 
DISL,ioos:station:DISL:MHPA:1,2019-04-04T10:00:00Z,30.6671,-87.9365,1.174,0.07,1111122 
DISL,ioos:station:DISL:MHPA:1,2019-04-04T10:30:00Z,30.6671,-87.9365,1.2,0.1,11111222 
DISL,ioos:station:DISL:MHPA:1,2019-04-04T11:00:00Z,30.6671,-87.9365,1.14,0.07,1111122 
DISL,ioos:station:DISL:MHPA:1,2019-04-04T11:30:00Z,30.6671,-87.9365,1.1,0.1,11111222 
DISL,ioos:station:DISL:MHPA:1,2019-04-04T12:00:00Z,30.6671,-87.9365,1.08,0.07,1111122 
DISL,ioos:station:DISL:MHPA:1,2019-04-04T12:30:00Z,30.6671,-87.9365,1.1,0.1,11111222 
DISL,ioos:station:DISL:MHPA:1,2019-04-04T13:00:00Z,30.6671,-87.9365,1.058,0.07,1111122 
DISL,ioos:station:DISL:MHPA:1,2019-04-04T13:30:00Z,30.6671,-87.9365,1.1,0.1,11111222 
DISL,ioos:station:DISL:MHPA:1,2019-04-04T14:00:00Z,30.6671,-87.9365,1.085,0.07,1111122 
DISL,ioos:station:DISL:MHPA:1,2019-04-04T14:30:00Z,30.6671,-87.9365,1.1,0.1,11111222 
DISL,ioos:station:DISL:MHPA:1,2019-04-04T15:00:00Z,30.6671,-87.9365,1.172,0.07,1111122 
DISL,ioos:station:DISL:MHPA:1,2019-04-04T15:30:00Z,30.6671,-87.9365,1.2,0.1,11111222 
DISL,ioos:station:DISL:MHPA:1,2019-04-04T16:00:00Z,30.6671,-87.9365,1.302,0.07,1111122 
DISL,ioos:station:DISL:MHPA:1,2019-04-04T16:30:00Z,30.6671,-87.9365,1.3,0.1,11111222 
DISL,ioos:station:DISL:MHPA:1,2019-04-04T17:00:00Z,30.6671,-87.9365,1.312,0.07,1111122 
DISL,ioos:station:DISL:MHPA:1,2019-04-04T17:30:00Z,30.6671,-87.9365,1.3,0.1,11111222 
DISL,ioos:station:DISL:MHPA:1,2019-04-04T18:00:00Z,30.6671,-87.9365,1.3,0.07,1111122 
DISL,ioos:station:DISL:MHPA:1,2019-04-04T18:30:00Z,30.6671,-87.9365,1.3,0.1,11111222 
DISL,ioos:station:DISL:MHPA:1,2019-04-04T19:00:00Z,30.6671,-87.9365,1.342,0.07,1111122 
DISL,ioos:station:DISL:MHPA:1,2019-04-04T19:30:00Z,30.6671,-87.9365,1.3,0.1,11111222 
DISL,ioos:station:DISL:MHPA:1,2019-04-04T20:00:00Z,30.6671,-87.9365,1.371,0.07,1111122 
DISL,ioos:station:DISL:MHPA:1,2019-04-04T20:30:00Z,30.6671,-87.9365,1.3,0.1,11111222 
DISL,ioos:station:DISL:MHPA:1,2019-04-04T21:00:00Z,30.6671,-87.9365,1.225,0.07,1111122 
DISL,ioos:station:DISL:MHPA:1,2019-04-04T21:30:00Z,30.6671,-87.9365,1.2,0.1,11111222 
DISL,ioos:station:DISL:MHPA:1,2019-04-04T22:00:00Z,30.6671,-87.9365,1.16,0.07,1111122 
DISL,ioos:station:DISL:MHPA:1,2019-04-04T22:30:00Z,30.6671,-87.9365,1.1,0.1,11111222 
DISL,ioos:station:DISL:MHPA:1,2019-04-04T23:00:00Z,30.6671,-87.9365,1.086,0.07,1111122 
DISL,ioos:station:DISL:MHPA:1,2019-04-04T23:30:00Z,30.6671,-87.9365,1.1,0.1,11111222 
DISL,ioos:station:DISL:MHPA:1,2019-04-05T00:00:00Z,30.6671,-87.9365,1.115,0.07,1111122 
DISL,ioos:station:DISL:MHPA:1,2019-04-05T00:30:00Z,30.6671,-87.9365,1.1,0.1,11111222 
DISL,ioos:station:DISL:MHPA:1,2019-04-05T01:00:00Z,30.6671,-87.9365,1.172,0.07,1111122 
DISL,ioos:station:DISL:MHPA:1,2019-04-05T01:30:00Z,30.6671,-87.9365,1.1,0.1,11111222 
DISL,ioos:station:DISL:MHPA:1,2019-04-05T02:00:00Z,30.6671,-87.9365,1.115,0.07,1111122 
DISL,ioos:station:DISL:MHPA:1,2019-04-05T02:30:00Z,30.6671,-87.9365,1.2,0.1,11111222 
DISL,ioos:station:DISL:MHPA:1,2019-04-05T03:00:00Z,30.6671,-87.9365,1.162,0.07,1111122 
DISL,ioos:station:DISL:MHPA:1,2019-04-05T03:30:00Z,30.6671,-87.9365,1.185,0.07,1111122 
DISL,ioos:station:DISL:MHPA:1,2019-04-05T04:00:00Z,30.6671,-87.9365,1.3,0.1,11111222 
DISL,ioos:station:DISL:MHPA:1,2019-04-05T04:30:00Z,30.6671,-87.9365,1.3,0.1,11111222 
DISL,ioos:station:DISL:MHPA:1,2019-04-05T05:00:00Z,30.6671,-87.9365,1.4,0.1,11111222 
DISL,ioos:station:DISL:MHPA:1,2019-04-05T05:30:00Z,30.6671,-87.9365,1.5,0.1,11111222 
DISL,ioos:station:DISL:MHPA:1,2019-04-05T06:00:00Z,30.6671,-87.9365,1.5,0.1,11111222 
DISL,ioos:station:DISL:MHPA:1,2019-04-05T06:30:00Z,30.6671,-87.9365,1.5,0.1,11111222 
DISL,ioos:station:DISL:MHPA:1,2019-04-05T07:00:00Z,30.6671,-87.9365,1.4,0.1,11111222 
DISL,ioos:station:DISL:MHPA:1,2019-04-05T07:30:00Z,30.6671,-87.9365,1.4,0.1,11111222 
DISL,ioos:station:DISL:MHPA:1,2019-04-05T08:00:00Z,30.6671,-87.9365,1.4,0.1,11111222 
DISL,ioos:station:DISL:MHPA:1,2019-04-05T08:30:00Z,30.6671,-87.9365,1.4,0.1,11111222 
DISL,ioos:station:DISL:MHPA:1,2019-04-05T09:00:00Z,30.6671,-87.9365,1.4,0.1,11111222 
DISL,ioos:station:DISL:MHPA:1,2019-04-05T09:30:00Z,30.6671,-87.9365,1.4,0.1,11111222 
DISL,ioos:station:DISL:MHPA:1,2019-04-05T10:00:00Z,30.6671,-87.9365,1.4,0.1,11111222 
DISL,ioos:station:DISL:MHPA:1,2019-04-05T10:30:00Z,30.6671,-87.9365,1.4,0.1,11111222 
DISL,ioos:station:DISL:MHPA:1,2019-04-05T11:00:00Z,30.6671,-87.9365,1.4,0.1,11111222 
DISL,ioos:station:DISL:MHPA:1,2019-04-05T11:30:00Z,30.6671,-87.9365,1.4,0.1,11111222 
DISL,ioos:station:DISL:MHPA:1,2019-04-05T12:00:00Z,30.6671,-87.9365,1.3,0.1,11111222 
DISL,ioos:station:DISL:MHPA:1,2019-04-05T12:30:00Z,30.6671,-87.9365,1.3,0.1,11111222 
DISL,ioos:station:DISL:MHPA:1,2019-04-05T13:00:00Z,30.6671,-87.9365,1.31,0.07,1111122 
DISL,ioos:station:DISL:MHPA:1,2019-04-05T13:30:00Z,30.6671,-87.9365,1.3,0.1,11111222 
DISL,ioos:station:DISL:MHPA:1,2019-04-05T14:00:00Z,30.6671,-87.9365,1.289,0.07,1111122 
DISL,ioos:station:DISL:MHPA:1,2019-04-05T14:30:00Z,30.6671,-87.9365,1.3,0.1,11111222 
DISL,ioos:station:DISL:MHPA:1,2019-04-05T15:00:00Z,30.6671,-87.9365,1.284,0.07,1111122 
DISL,ioos:station:DISL:MHPA:1,2019-04-05T15:30:00Z,30.6671,-87.9365,1.3,0.1,11111222 
DISL,ioos:station:DISL:MHPA:1,2019-04-05T16:00:00Z,30.6671,-87.9365,1.334,0.07,1111122 
DISL,ioos:station:DISL:MHPA:1,2019-04-05T16:30:00Z,30.6671,-87.9365,1.3,0.1,11111222 
DISL,ioos:station:DISL:MHPA:1,2019-04-05T17:00:00Z,30.6671,-87.9365,1.329,0.07,1111122 
DISL,ioos:station:DISL:MHPA:1,2019-04-05T17:30:00Z,30.6671,-87.9365,1.3,0.1,11111222 
DISL,ioos:station:DISL:MHPA:1,2019-04-05T18:00:00Z,30.6671,-87.9365,1.334,0.07,1111122 
DISL,ioos:station:DISL:MHPA:1,2019-04-05T18:30:00Z,30.6671,-87.9365,1.3,0.1,11111222 
DISL,ioos:station:DISL:MHPA:1,2019-04-05T19:00:00Z,30.6671,-87.9365,1.342,0.07,1111122 
DISL,ioos:station:DISL:MHPA:1,2019-04-05T19:30:00Z,30.6671,-87.9365,1.3,0.1,11111222 
DISL,ioos:station:DISL:MHPA:1,2019-04-05T20:00:00Z,30.6671,-87.9365,1.3,0.07,1111122 
DISL,ioos:station:DISL:MHPA:1,2019-04-05T20:30:00Z,30.6671,-87.9365,1.3,0.1,11111222 
DISL,ioos:station:DISL:MHPA:1,2019-04-05T21:00:00Z,30.6671,-87.9365,1.242,0.07,1111122 
DISL,ioos:station:DISL:MHPA:1,2019-04-05T21:30:00Z,30.6671,-87.9365,1.2,0.1,11111222 
DISL,ioos:station:DISL:MHPA:1,2019-04-05T22:00:00Z,30.6671,-87.9365,1.204,0.07,1111122 
DISL,ioos:station:DISL:MHPA:1,2019-04-05T22:30:00Z,30.6671,-87.9365,1.2,0.1,11111222 
DISL,ioos:station:DISL:MHPA:1,2019-04-05T23:00:00Z,30.6671,-87.9365,1.14,0.07,1111122 
DISL,ioos:station:DISL:MHPA:1,2019-04-05T23:30:00Z,30.6671,-87.9365,1.1,0.1,11111222 
DISL,ioos:station:DISL:MHPA:1,2019-04-06T00:00:00Z,30.6671,-87.9365,1.104,0.07,1111122 
DISL,ioos:station:DISL:MHPA:1,2019-04-06T00:30:00Z,30.6671,-87.9365,1.1,0.1,11111222 
DISL,ioos:station:DISL:MHPA:1,2019-04-06T01:00:00Z,30.6671,-87.9365,1.086,0.07,1111122 
DISL,ioos:station:DISL:MHPA:1,2019-04-06T01:30:00Z,30.6671,-87.9365,1.1,0.1,11111222 
DISL,ioos:station:DISL:MHPA:1,2019-04-06T02:00:00Z,30.6671,-87.9365,1.081,0.07,1111122 
DISL,ioos:station:DISL:MHPA:1,2019-04-06T02:30:00Z,30.6671,-87.9365,1.1,0.1,11111222 
DISL,ioos:station:DISL:MHPA:1,2019-04-06T03:00:00Z,30.6671,-87.9365,1.147,0.07,1111122 
DISL,ioos:station:DISL:MHPA:1,2019-04-06T03:30:00Z,30.6671,-87.9365,1.2,0.1,11111222 
DISL,ioos:station:DISL:MHPA:1,2019-04-06T04:00:00Z,30.6671,-87.9365,1.196,0.07,1111122 
DISL,ioos:station:DISL:MHPA:1,2019-04-06T04:30:00Z,30.6671,-87.9365,1.3,0.1,11111222 
DISL,ioos:station:DISL:MHPA:1,2019-04-06T05:00:00Z,30.6671,-87.9365,1.314,0.07,1111122 
DISL,ioos:station:DISL:MHPA:1,2019-04-06T05:30:00Z,30.6671,-87.9365,1.4,0.1,11111222 
DISL,ioos:station:DISL:MHPA:1,2019-04-06T06:00:00Z,30.6671,-87.9365,1.357,0.07,1111122 
DISL,ioos:station:DISL:MHPA:1,2019-04-06T06:30:00Z,30.6671,-87.9365,1.4,0.1,11111222 
DISL,ioos:station:DISL:MHPA:1,2019-04-06T07:00:00Z,30.6671,-87.9365,1.394,0.07,1111122 
DISL,ioos:station:DISL:MHPA:1,2019-04-06T07:30:00Z,30.6671,-87.9365,1.4,0.1,11111222 
DISL,ioos:station:DISL:MHPA:1,2019-04-06T08:00:00Z,30.6671,-87.9365,1.4,0.07,1111122 
DISL,ioos:station:DISL:MHPA:1,2019-04-06T08:30:00Z,30.6671,-87.9365,1.4,0.1,11111222 
DISL,ioos:station:DISL:MHPA:1,2019-04-06T09:00:00Z,30.6671,-87.9365,1.385,0.07,1111122 
DISL,ioos:station:DISL:MHPA:1,2019-04-06T09:30:00Z,30.6671,-87.9365,1.4,0.1,11111222 
DISL,ioos:station:DISL:MHPA:1,2019-04-06T10:00:00Z,30.6671,-87.9365,1.374,0.07,1111122 
DISL,ioos:station:DISL:MHPA:1,2019-04-06T10:30:00Z,30.6671,-87.9365,1.4,0.1,11111222 
DISL,ioos:station:DISL:MHPA:1,2019-04-06T11:00:00Z,30.6671,-87.9365,1.352,0.07,1111122 
DISL,ioos:station:DISL:MHPA:1,2019-04-06T11:30:00Z,30.6671,-87.9365,1.3,0.1,11111222 
DISL,ioos:station:DISL:MHPA:1,2019-04-06T12:00:00Z,30.6671,-87.9365,1.29,0.07,1111122 
DISL,ioos:station:DISL:MHPA:1,2019-04-06T12:30:00Z,30.6671,-87.9365,1.3,0.1,11111222 
DISL,ioos:station:DISL:MHPA:1,2019-04-06T13:00:00Z,30.6671,-87.9365,1.267,0.07,1111122 
DISL,ioos:station:DISL:MHPA:1,2019-04-06T13:30:00Z,30.6671,-87.9365,1.3,0.1,11111222 
DISL,ioos:station:DISL:MHPA:1,2019-04-06T14:00:00Z,30.6671,-87.9365,1.252,0.07,1111122 
DISL,ioos:station:DISL:MHPA:1,2019-04-06T14:30:00Z,30.6671,-87.9365,1.3,0.1,11111222 
DISL,ioos:station:DISL:MHPA:1,2019-04-06T15:00:00Z,30.6671,-87.9365,1.26,0.07,1111122 
DISL,ioos:station:DISL:MHPA:1,2019-04-06T15:30:00Z,30.6671,-87.9365,1.3,0.1,11111222 
DISL,ioos:station:DISL:MHPA:1,2019-04-06T16:00:00Z,30.6671,-87.9365,1.302,0.07,1111122 
DISL,ioos:station:DISL:MHPA:1,2019-04-06T16:30:00Z,30.6671,-87.9365,1.3,0.1,11111222 
DISL,ioos:station:DISL:MHPA:1,2019-04-06T17:00:00Z,30.6671,-87.9365,1.327,0.07,1111122 